Flag for Canada Weather past 2 weeks in Sherbrooke, Quebec, Canada

Now
32 °F

Mostly cloudy.


Feels Like: 22 °F
Forecast: N/A
Wind: 15 mph from West

Location: Sherbrooke

Current Time: Mar 4, 2015 at 3:37:38 PM

Latest Report: Mar 4, 2015 at 3:00 PM


Visibility: 9 mi

Pressure: 29.68 "Hg

Humidity: 64%

Dew point: 21 °F

Location of SherbrookeLocation

Historic Weather in Sherbrooke — Graph

°F

Sherbrooke temperature yesterday

Maximum temperature yesterday: 25 °F (at 5:00 PM)
Minimum temperature yesterday: -9 °F (at 7:00 AM)
Average temperature yesterday: 13 °F

Past Weeks' High & Low Weather Summary

 TemperatureHumidityPressure
High32 °F (Mar 4, 1:49 PM)100% (Feb 21, 11:00 PM)30.71 "Hg (Feb 21, 11:00 PM)
Low-27 °F (Feb 24, 4:00 AM)28% (Mar 3, 5:00 PM)29.53 "Hg (Mar 4, 3:00 AM)
Average8 °F70%30.08 "Hg
* Reported Feb 17 2:00 PM — Mar 4 2:00 PM, Sherbrooke, Weather by CustomWeather, © 2015

Note: Actual official high and low records may vary slightly from our data, if they occured in-between our weather recording intervals... More about our weather records

Advertising

Sherbrooke weather history for previous 24 hours

 ConditionsComfort  
Time TempWeatherWind HumidityBarometerVisibility
2:00 PM
Wed, Mar 4
32 °FLight snow. Overcast.20 mph64%29.67 "Hg9 mi
1:49 PM32 °FLight snow. Mostly cloudy.17 mph64%29.67 "Hg9 mi
1:00 PM30 °FLight snow. Overcast.20 mph75%29.69 "Hg9 mi
12:00 PM28 °FLight snow. Overcast.24 mph74%29.70 "Hg8 mi
11:55 AM28 °FLight snow. More clouds than sun.26 mph74%29.70 "Hg6 mi
11:00 AM27 °FLight snow. Mostly cloudy.12 mph93%29.69 "Hg4 mi
10:00 AM27 °FLight snow. Mostly cloudy.8 mph86%29.70 "Hg6 mi
9:00 AM27 °FLight snow. Overcast.6 mph86%29.69 "Hg9 mi
8:00 AM27 °FLight snow. Overcast.13 mph80%29.67 "Hg9 mi
7:57 AM27 °FLight snow. Overcast.15 mph80%29.67 "Hg9 mi
7:00 AM27 °FLight snow. Overcast.16 mph93%29.65 "Hg9 mi
6:03 AM28 °FLight snow. Overcast.21 mph86%29.62 "Hg4 mi
5:04 AM27 °FLight snow. Overcast.7 mph100%29.58 "Hg3 mi
4:02 AM27 °FLight freezing rain. Ice fog.12 mph93%29.55 "Hg2 mi
3:00 AM27 °FLight freezing rain. Ice fog.8 mph93%29.53 "Hg3 mi
2:00 AM27 °FLight freezing rain. Ice fog.10 mph93%29.54 "Hg3 mi
1:03 AM25 °FLight snow. Mostly cloudy.14 mph93%29.55 "Hg2 mi
12:00 AM23 °FLight snow. Mostly cloudy.10 mph93%29.56 "Hg2 mi
11:47 PM
Tue, Mar 3
23 °FLight snow. Mostly cloudy.8 mph93%29.59 "Hg2 mi
11:00 PM21 °FLight snow. Overcast.7 mph93%29.65 "Hg1 mi
10:48 PM21 °FLight snow. Overcast.8 mph93%29.65 "Hg1 mi
10:00 PM21 °FLight snow. Ice fog.9 mph93%29.69 "Hg1 mi
9:54 PM21 °FLight snow. Ice fog.8 mph93%29.71 "Hg1 mi
9:02 PM21 °FLight snow. Overcast.8 mph93%29.76 "Hg2 mi
8:02 PM23 °FLight snow. Overcast.16 mph68%29.82 "Hg2 mi
7:00 PM25 °FOvercast.6 mph30%29.91 "Hg9 mi
6:00 PM25 °FOvercast.6 mph33%29.96 "Hg9 mi
5:00 PM25 °FPartly sunny.7 mph28%30.01 "Hg9 mi
4:00 PM23 °FSunny.5 mph33%30.08 "Hg9 mi
3:00 PM21 °FSunny.3 mph30%30.14 "Hg9 mi
Weather by CustomWeather, © 2015

See weather overviewHow to use our weather pages